Météo par heure à Al Jadid

Ce jour, 14 Mai, Vendredi

Heure Température Précipitation Vent Pression Humidité
00:00 +20°C° 0 mm 6 m/s 760 mmHg 62%
01:00 +20°C° 0 mm 5 m/s 760 mmHg 62%
02:00 +20°C° 0 mm 5 m/s 760 mmHg 61%
03:00 +20°C° 0 mm 5 m/s 760 mmHg 60%
04:00 +19°C° 0 mm 5 m/s 760 mmHg 58%
05:00 +20°C° 0 mm 5 m/s 761 mmHg 55%
06:00 +21°C° 0 mm 4 m/s 761 mmHg 52%
07:00 +22°C° 0 mm 4 m/s 761 mmHg 49%
08:00 +25°C° 0 mm 3 m/s 761 mmHg 42%
09:00 +27°C° 0 mm 3 m/s 761 mmHg 36%
10:00 +30°C° 0 mm 3 m/s 761 mmHg 30%
11:00 +31°C° 0 mm 3 m/s 761 mmHg 27%
12:00 +33°C° 0 mm 3 m/s 760 mmHg 25%
13:00 +34°C° 0 mm 3 m/s 760 mmHg 23%
14:00 +33°C° 0 mm 4 m/s 759 mmHg 25%
15:00 +32°C° 0 mm 6 m/s 759 mmHg 28%
16:00 +32°C° 0 mm 7 m/s 759 mmHg 30%
17:00 +29°C° 0 mm 7 m/s 759 mmHg 34%
18:00 +28°C° 0 mm 6 m/s 759 mmHg 38%
19:00 +27°C° 0 mm 6 m/s 759 mmHg 42%
20:00 +27°C° 0 mm 5 m/s 759 mmHg 40%
21:00 +27°C° 0 mm 5 m/s 759 mmHg 38%
22:00 +27°C° 0 mm 4 m/s 759 mmHg 36%
23:00 +26°C° 0 mm 4 m/s 759 mmHg 37%

Demain, 15 Mai, Samedi

Heure Température Précipitation Vent Pression Humidité
00:00 +26°C° 0 mm 5 m/s 759 mmHg 39%
01:00 +25°C° 0 mm 5 m/s 759 mmHg 40%
02:00 +25°C° 0 mm 5 m/s 759 mmHg 42%
03:00 +23°C° 0 mm 5 m/s 759 mmHg 45%
04:00 +22°C° 0 mm 5 m/s 759 mmHg 47%
05:00 +23°C° 0 mm 5 m/s 759 mmHg 45%
06:00 +25°C° 0 mm 5 m/s 759 mmHg 42%
07:00 +26°C° 0 mm 5 m/s 760 mmHg 40%
08:00 +29°C° 0 mm 4 m/s 760 mmHg 34%
09:00 +31°C° 0 mm 3 m/s 759 mmHg 28%
10:00 +35°C° 0 mm 2 m/s 759 mmHg 22%
11:00 +36°C° 0 mm 3 m/s 759 mmHg 20%
12:00 +37°C° 0 mm 4 m/s 759 mmHg 18%
13:00 +38°C° 0 mm 4 m/s 758 mmHg 16%
14:00 +36°C° 0 mm 6 m/s 758 mmHg 21%
15:00 +35°C° 0 mm 8 m/s 758 mmHg 27%
16:00 +33°C° 0 mm 10 m/s 758 mmHg 32%
17:00 +31°C° 0 mm 9 m/s 758 mmHg 39%
18:00 +28°C° 0 mm 9 m/s 758 mmHg 47%
19:00 +24°C° 0 mm 8 m/s 759 mmHg 54%
20:00 +24°C° 0 mm 8 m/s 759 mmHg 54%
21:00 +24°C° 0 mm 8 m/s 760 mmHg 54%
22:00 +23°C° 0 mm 8 m/s 760 mmHg 54%
23:00 +22°C° 0 mm 8 m/s 760 mmHg 61%

Après-demain, 16 Mai, Dimanche

Heure Température Précipitation Vent Pression Humidité
00:00 +22°C° 0 mm 7 m/s 760 mmHg 68%
01:00 +21°C° 0 mm 7 m/s 759 mmHg 76%
02:00 +21°C° 0 mm 7 m/s 760 mmHg 74%
03:00 +20°C° 0 mm 7 m/s 760 mmHg 73%
04:00 +20°C° 0 mm 7 m/s 760 mmHg 71%
05:00 +20°C° 0 mm 7 m/s 760 mmHg 67%
06:00 +21°C° 0 mm 7 m/s 761 mmHg 63%
07:00 +21°C° 0 mm 7 m/s 761 mmHg 59%
08:00 +22°C° 0 mm 7 m/s 761 mmHg 54%
09:00 +24°C° 0 mm 7 m/s 761 mmHg 48%
10:00 +26°C° 0 mm 7 m/s 762 mmHg 43%
11:00 +26°C° 0 mm 8 m/s 761 mmHg 44%
12:00 +26°C° 0 mm 8 m/s 761 mmHg 44%
13:00 +26°C° 0 mm 9 m/s 761 mmHg 44%
14:00 +26°C° 0 mm 9 m/s 761 mmHg 46%
15:00 +24°C° 0 mm 8 m/s 760 mmHg 48%
16:00 +24°C° 0 mm 8 m/s 760 mmHg 50%
17:00 +23°C° 0 mm 8 m/s 761 mmHg 56%
18:00 +22°C° 0 mm 7 m/s 761 mmHg 63%
19:00 +21°C° 0 mm 7 m/s 761 mmHg 69%
20:00 +21°C° 0 mm 6 m/s 761 mmHg 71%
21:00 +20°C° 0 mm 5 m/s 761 mmHg 73%
22:00 +20°C° 0 mm 5 m/s 762 mmHg 75%
23:00 +20°C° 0 mm 4 m/s 761 mmHg 76%

17 Mai, Lundi

Heure Température Précipitation Vent Pression Humidité
00:00 +20°C° 0 mm 4 m/s 761 mmHg 76%
01:00 +19°C° 0 mm 3 m/s 761 mmHg 76%
02:00 +19°C° 0 mm 3 m/s 761 mmHg 76%
03:00 +19°C° 0 mm 3 m/s 761 mmHg 76%
04:00 +19°C° 0 mm 3 m/s 761 mmHg 76%
05:00 +20°C° 0 mm 3 m/s 761 mmHg 70%
06:00 +21°C° 0 mm 2 m/s 762 mmHg 64%
07:00 +21°C° 0 mm 2 m/s 762 mmHg 59%
08:00 +24°C° 0 mm 2 m/s 762 mmHg 51%
09:00 +26°C° 0 mm 3 m/s 762 mmHg 44%
10:00 +27°C° 0 mm 3 m/s 762 mmHg 37%
11:00 +28°C° 0 mm 4 m/s 762 mmHg 36%
12:00 +29°C° 0 mm 5 m/s 762 mmHg 35%
13:00 +29°C° 0 mm 6 m/s 761 mmHg 34%
14:00 +29°C° 0 mm 6 m/s 761 mmHg 36%
15:00 +28°C° 0 mm 6 m/s 761 mmHg 38%
16:00 +28°C° 0 mm 6 m/s 761 mmHg 39%
17:00 +27°C° 0 mm 5 m/s 761 mmHg 45%
18:00 +25°C° 0 mm 5 m/s 761 mmHg 50%
19:00 +23°C° 0 mm 4 m/s 761 mmHg 55%
20:00 +23°C° 0 mm 4 m/s 761 mmHg 55%
21:00 +23°C° 0 mm 4 m/s 762 mmHg 55%
22:00 +23°C° 0 mm 4 m/s 762 mmHg 54%
23:00 +24°C° 0 mm 3 m/s 761 mmHg 53%

18 Mai, Mardi

Heure Température Précipitation Vent Pression Humidité
00:00 +24°C° 0 mm 3 m/s 761 mmHg 51%
01:00 +24°C° 0 mm 3 m/s 761 mmHg 50%
02:00 +24°C° 0 mm 2 m/s 761 mmHg 48%
03:00 +23°C° 0 mm 2 m/s 761 mmHg 46%
04:00 +23°C° 0 mm 1 m/s 761 mmHg 44%
05:00 +24°C° 0 mm 1 m/s 761 mmHg 41%
06:00 +25°C° 0 mm 1 m/s 761 mmHg 38%
07:00 +27°C° 0 mm 1 m/s 762 mmHg 34%
08:00 +28°C° 0 mm 1 m/s 762 mmHg 32%
09:00 +30°C° 0 mm 1 m/s 762 mmHg 29%
10:00 +29°C° 0 mm 0 m/s 762 mmHg 26%
11:00 +32°C° 0 mm 1 m/s 762 mmHg 25%
12:00 +34°C° 0 mm 3 m/s 761 mmHg 23%
13:00 +35°C° 0 mm 4 m/s 761 mmHg 22%
14:00 +34°C° 0 mm 4 m/s 761 mmHg 23%
15:00 +34°C° 0 mm 5 m/s 761 mmHg 25%
16:00 +33°C° 0 mm 5 m/s 761 mmHg 26%
17:00 +30°C° 0 mm 5 m/s 761 mmHg 32%
18:00 +29°C° 0 mm 5 m/s 761 mmHg 37%
19:00 +27°C° 0 mm 4 m/s 761 mmHg 43%
20:00 +27°C° 0 mm 4 m/s 761 mmHg 41%
21:00 +27°C° 0 mm 4 m/s 761 mmHg 39%
22:00 +27°C° 0 mm 3 m/s 761 mmHg 36%
23:00 +27°C° 0 mm 3 m/s 761 mmHg 36%

19 Mai, Mercredi

Heure Température Précipitation Vent Pression Humidité
00:00 +27°C° 0 mm 3 m/s 761 mmHg 35%
01:00 +27°C° 0 mm 3 m/s 761 mmHg 34%
02:00 +26°C° 0 mm 3 m/s 761 mmHg 34%
03:00 +26°C° 0 mm 2 m/s 761 mmHg 33%
04:00 +25°C° 0 mm 1 m/s 761 mmHg 33%
05:00 +26°C° 0 mm 1 m/s 761 mmHg 31%
06:00 +28°C° 0 mm 2 m/s 762 mmHg 28%
07:00 +29°C° 0 mm 2 m/s 762 mmHg 26%
08:00 +30°C° 0 mm 3 m/s 762 mmHg 26%
09:00 +32°C° 0 mm 4 m/s 762 mmHg 26%
10:00 +33°C° 0 mm 5 m/s 763 mmHg 26%
11:00 +33°C° 0 mm 6 m/s 762 mmHg 28%
12:00 +33°C° 0 mm 6 m/s 762 mmHg 29%
13:00 +33°C° 0 mm 7 m/s 762 mmHg 31%
14:00 +32°C° 0 mm 7 m/s 762 mmHg 35%
15:00 +30°C° 0 mm 7 m/s 762 mmHg 38%
16:00 +29°C° 0 mm 8 m/s 761 mmHg 42%
17:00 +28°C° 0 mm 7 m/s 762 mmHg 46%
18:00 +27°C° 0 mm 7 m/s 762 mmHg 49%
19:00 +26°C° 0 mm 6 m/s 762 mmHg 53%
20:00 +24°C° 0 mm 6 m/s 762 mmHg 51%
21:00 +25°C° 0 mm 5 m/s 762 mmHg 50%
22:00 +25°C° 0 mm 5 m/s 762 mmHg 48%
23:00 +23°C° 0 mm 5 m/s 762 mmHg 49%
Voir plus

Nous avons besoin de votre consentement

Meteoprog et ses fournisseurs de services peuvent stocker et accéder à des données personnelles telles que des cookies, des identifiants d'appareils ou d'autres technologies similaires sur votre appareil et traiter ces données pour personnaliser le contenu et les publicités, ainsi que pour fournir des fonctionnalités de médias sociaux et analyser le trafic.

  • Stocker et/ou accéder à des informations sur votre appareil

    Des cookies, des identifiants d'appareils ou d'autres informations peuvent être stockés ou accessibles sur votre appareil aux fins indiquées ci-dessus.

  • Annonces et contenus personnalisés, mesure des annonces et des contenus, connaissance de l'audience et développement de produits

    Les annonces et le contenu peuvent être personnalisés en fonction d'un profil. D'autres données peuvent être ajoutées pour mieux personnaliser les annonces et le contenu. Les performances des publicités et du contenu peuvent être mesurées. Il est possible d'obtenir des informations sur le public qui a vu les publicités et le contenu. Ces données peuvent être utilisées pour développer ou améliorer l'expérience de l'utilisateur, les systèmes et les logiciels.

En cliquant sur "J'accepte", vous autorisez l'utilisation de cookies, des identifiants d'appareils, des balises web ou d'autres technologies similaires. Vos paramètres peuvent être modifiés dans le navigateur de votre appareil.

Dans certains cas, des intérêts légitimes peuvent être invoqués plutôt qu'un consentement. Vous pouvez en savoir plus à ce sujet dans notre Politique de confidentialité et de cookies.